Weather Roundup
Issued by NWS Chicago, IL

Home | Current Version | Previous Version | Text Only | Print | Product List | Glossary On
Versions: 1 2 3 4 5 6 7 8 9 10 11 12 13 14 15 16 17 18 19 20 21 22 23 24 25 26 27 28 29 30 31 32 33 34 35 36 37 38 39 40 41 42 43 44 45 46 47 48 49 50
000
NZUS59 KLOT 270708
HRRLOT

CHICAGO AREA WEATHER ROUNDUP
NATIONAL WEATHER SERVICE CHICAGO/ROMEOVILLE IL
200 AM CDT WED MAY 27 2020

NOTE: "FAIR" INDICATES FEW OR NO CLOUDS BELOW 12,000 FEET WITH NO
SIGNIFICANT WEATHER AND/OR OBSTRUCTIONS TO VISIBILITY.

* THESE STATIONS ARE NOT UNDER NWS QUALITY CONTROL. THEY ALSO MAY NOT
  REPORT WEATHER SUCH AS PRECIPITATION OR FOG.

ILZ005-006-012>014-019>023-270800-
NORTHEAST ILLINOIS

CITY           SKY/WX    TMP DP  RH WIND       PRES   REMARKS
OHARE          MOCLDY    76  65  68 S7        29.95S
MIDWAY           N/A     76  66  71 S5        29.95F
AURORA         MOCLDY    69  67  93 SE3       29.95F
JOLIET*        CLOUDY    74  68  83 CALM      29.96S
WAUKEGAN       CLOUDY    72  65  78 S6        29.94S
DUPAGE AIRPORT   N/A     71  65  81 S3        29.95S
WHEELING       CLOUDY    76  67  73 S6        29.95F
KANKAKEE*      CLOUDY    70  66  88 SE3       29.97S
MORRIS*        CLOUDY    71  69  94 S3        29.95S
LEWIS AIRPORT* MOCLDY    70  68  92 S6        29.96F
NORTHERLY ISL    N/A     75  64  68 S6          N/A
NORTHERLY IS   NOT AVBL
NORTHERLY ISL    N/A     75  64  68 S6          N/A
$$

WIZ051-052-058>065-066-070>072-270800-
SOUTHEAST WISCONSIN

CITY           SKY/WX    TMP DP  RH WIND       PRES   REMARKS
MILWAUKEE      CLOUDY    72  62  71 S6        29.94S
KENOSHA*       MOCLDY    72  64  76 S3        29.95S
RACINE*          N/A     67  62  84 CALM      29.96S
BURLINGTON       N/A     68  66  94 CALM      29.95S
WAUKESHA         N/A     68  61  77 S5        29.96S
WEST BEND        N/A     68  63  83 CALM      29.94F
$$

INZ001>003-010>013-019-020-270800-
NORTHWEST INDIANA

CITY           SKY/WX    TMP DP  RH WIND       PRES   REMARKS
GARY*            N/A     73  66  81 CALM      29.97S
MICHIGAN CITY* NOT AVBL
RENSSELAER*    NOT AVBL
VALPARAISO       N/A     68  64  87 NE3       29.98S
$$

LMZ740>746-270800-
SOUTHERN LAKE MICHIGAN

STATION/POSITION TIME  SKY/WX   TEMP WIND        PRES    VSBY
                                AIR  DIR/SP/G
                 (UTC)          (F)  (DEG/KT/KT) (MB)    (MI)
HARRISON CRIB    0640            76  200/  9/ 10   N/A
NORTHERLY ISL    0700            75  200/  4/  8   N/A
CALUMET HARBOR   0630            74  180/  4/  6 1014.0F
BURNS HARBOR     NOT AVBL
MICHIGAN CITY    0640            76  150/  8/  9   N/A
$$

ABBREVIATIONS USED IN REMARKS
   TC - TEMPERATURE IN CELSIUS
  WCI - WIND CHILL INDEX
   HX - HEAT INDEX
  VSB - VISIBILITY
$$



USA.gov is the U.S. government's official web portal to all federal, state and local government web resources and services.